7 * 24
多渠道服务支持
STARLINK-32019 是 SpaceX Starlink 计划中的一颗低轨通信卫星,旨在为全球用户提供高速互联网服务。该卫星于近期发射,部署在近地轨道,具备先进的通信技术和激光链路,以提升数据传输效率和网络稳定性。作为 Starlink 卫星群的一部分,它有助于扩大覆盖范围,特别是在偏远和网络基础设施薄弱的地区。该计划致力于构建一个全球性的宽带网络,推动互联网接入的普及与公平。
美国
(US)
| 数据来源 | 国际轨道数据 |
| 星历时间: | 2025-11-02T18:04:27+0800 18小时前 查看轨道信息 |
| 半长轴: | 6853.379km |
| 偏心率: | 0.0001646 |
| 轨道倾角: | 53.160° |
| 近地点辐角 | 76.453° |
| 升交点赤经 | 190.859° |
| 平近点角 | 283.666° |
| 近地点: | 474.115km |
| 远地点: | 476.373km |
| 周期: | 94.106分钟 |
| 每日圈数: | 15.301912 |